Celle Airport ETHC

Flugplatz Daten

Name: Celle Airport

Ident: ETHC

Lat: 52,59120178

Long: 10,02210045

Platzhöhe: 129 ft

IataCode: ZCN

City:

Metar

2022/08/15 19:20
ETHC 151920Z 15002KT 9999 BKN140 BKN220 21/19 Q1005 BLU

Taf

Gewünschte Webcam nicht vorhanden? Dann fügen Sie eine hinzu. Sie wird dann so schnell wie möglich freigeschaltet
Url: Title: